McCall, ID

4:05 AM MDT on June 25, 2017 (GMT -0600)
McCall

Weather History for KMYL - October, 2010

Change the Weather History Date:

Wednesday, October 13, 2010

  Actual Average Record
Temperature  
Mean Temperature 46 °F 41 °F  
Max Temperature 66 °F 57 °F 76 °F (1991)
Min Temperature 26 °F 25 °F 16 °F (1985)
Degree Days  
Heating Degree Days 19 24  
Month to date heating degree days 183 290  
Since 1 July heating degree days 794 1055  
Cooling Degree Days 0 0  
Month to date cooling degree days 0 0  
Year to date cooling degree days 41 25  
Moisture  
Dew Point 24 °F    
Average Humidity 49    
Maximum Humidity 81    
Minimum Humidity 16    
Precipitation  
Precipitation 0.00 in 0.04 in 0.70 in (1962)
Month to date precipitation 0.43 0.44  
Year to date precipitation 16.46 14.36  
Sea Level Pressure  
Sea Level Pressure 30.41 in    
Wind  
Wind Speed 2 mph (SE)    
Max Wind Speed 9 mph    
Max Gust Speed -    
Visibility 10 miles    
Events      
T = Trace of Precipitation, MM = Missing Value Source: NWS Daily Summary

Daily Weather History Graph

Daily Weather History Graph

Search for Another Location

Airport or City:

Trip Planner

Search our weather history database for the weather conditions in past years. The results will help you decide how hot, cold, wet, or windy it might be!

Date:

Astronomy

Oct. 13, 2010 Rise Set
Actual Time 7:57 AM MDT 7:02 PM MDT
Civil Twilight 7:28 AM MDT 7:32 PM MDT
Nautical Twilight 6:54 AM MDT 8:06 PM MDT
Astronomical Twilight 6:20 AM MDT 8:40 PM MDT
Moon 2:33 PM MDT (10/13) 11:34 PM MDT (10/13)
Length of Visible Light 12h 04m
Length of Day
11h 05m
Waxing Crescent, 39% of the Moon is Illuminated
Oct 13
Waxing Crescent
Oct 14
First Quarter
Oct 22
Full
Oct 30
Last Quarter
Nov 5
New

Hourly Weather History & Observations

Time (MDT) Temp. Windchill Dew Point Humidity Pressure Visibility Wind Dir Wind Speed Gust Speed Precip Events Conditions
12:51 AM 33.1 °F - 23.0 °F 66% 30.48 in 10.0 mi Calm Calm - N/A   Clear
1:51 AM 32.0 °F - 24.1 °F 73% 30.47 in 10.0 mi Calm Calm - N/A   Clear
2:51 AM 30.9 °F 27.5 °F 21.9 °F 69% 30.46 in 10.0 mi ENE 3.5 mph - N/A   Clear
3:51 AM 30.9 °F - 21.0 °F 67% 30.44 in 10.0 mi Calm Calm - N/A   Clear
4:51 AM 28.9 °F - 23.0 °F 78% 30.44 in 10.0 mi Calm Calm - N/A   Clear
5:51 AM 30.0 °F - 21.9 °F 72% 30.44 in 10.0 mi Calm Calm - N/A   Clear
6:51 AM 28.9 °F - 21.9 °F 75% 30.45 in 10.0 mi Calm Calm - N/A   Clear
7:51 AM 27.0 °F - 21.9 °F 81% 30.48 in 10.0 mi Calm Calm - N/A   Clear
8:51 AM 30.9 °F - 24.1 °F 76% 30.49 in 10.0 mi Calm Calm - N/A   Clear
9:51 AM 36.0 °F - 28.0 °F 73% 30.49 in 10.0 mi Calm Calm - N/A   Clear
10:51 AM 43.0 °F - 28.9 °F 58% 30.48 in 10.0 mi Calm Calm - N/A   Clear
11:51 AM 48.9 °F - 21.9 °F 35% 30.46 in 10.0 mi Calm Calm - N/A   Clear
12:51 PM 54.0 °F - 25.0 °F 33% 30.44 in 10.0 mi SSE 3.5 mph - N/A   Clear
1:51 PM 57.9 °F - 23.0 °F 26% 30.41 in 10.0 mi South 6.9 mph - N/A   Clear
2:51 PM 62.1 °F - 19.9 °F 20% 30.37 in 10.0 mi South 4.6 mph - N/A   Clear
3:51 PM 64.9 °F - 17.1 °F 16% 30.34 in 10.0 mi South 9.2 mph - N/A   Clear
4:51 PM 66.0 °F - 19.0 °F 17% 30.32 in 10.0 mi South 9.2 mph - N/A   Clear
5:51 PM 64.0 °F - 24.1 °F 22% 30.31 in 10.0 mi SSE 5.8 mph - N/A   Clear
6:51 PM 60.1 °F - 28.9 °F 31% 30.32 in 10.0 mi Calm Calm - N/A   Clear
7:51 PM 50.0 °F - 28.0 °F 43% 30.35 in 10.0 mi ENE 3.5 mph - N/A   Clear
8:51 PM 46.0 °F - 28.0 °F 50% 30.36 in 10.0 mi Calm Calm - N/A   Clear
9:51 PM 42.1 °F 40.2 °F 28.9 °F 60% 30.36 in 10.0 mi NE 3.5 mph - N/A   Clear
10:51 PM 39.0 °F - 27.0 °F 62% 30.36 in 10.0 mi Calm Calm - N/A   Clear
11:51 PM 37.0 °F - 27.0 °F 67% 30.35 in 10.0 mi Calm Calm - N/A   Clear